Change the Weather History Date:

Wednesday, February 27, 2013

  Actual Average Record
Temperature  
Mean Temperature 57 °F -  
Max Temperature 65 °F 76 °F 91 °F (1986)
Min Temperature 49 °F 42 °F 27 °F (1929)
Degree Days  
Heating Degree Days 8    
Growing Degree Days 7 (Base 50)    
Moisture  
Dew Point 9 °F    
Average Humidity 16    
Maximum Humidity 31    
Minimum Humidity 10    
Precipitation  
Precipitation 0.00 in - - ()
Sea Level Pressure  
Sea Level Pressure 30.17 in    
Wind  
Wind Speed 11 mph (North)    
Max Wind Speed 22 mph    
Max Gust Speed 26 mph    
Visibility 10 miles    
Events      
Averages and records for this station are not official NWS values.
T = Trace of Precipitation, MM = Missing Value Source: NWS Daily Summary

Daily Weather History Graph

Daily Weather History Graph

Search for Another Location

Airport or City:

Trip Planner

Search our weather history database for the weather conditions in past years. The results will help you decide how hot, cold, wet, or windy it might be!

Date:

Astronomy

Feb. 27, 2013 Rise Set
Actual Time 6:59 AM MST 6:24 PM MST
Civil Twilight 6:34 AM MST 6:49 PM MST
Nautical Twilight 6:06 AM MST 7:18 PM MST
Astronomical Twilight 5:37 AM MST 7:47 PM MST
Moon 8:40 PM MST (2/27) 7:45 AM MST (2/27)
Length of Visible Light 12h 15m
Length of Day
11h 24m
Waning Gibbous, 96% of the Moon is Illuminated
Feb 27
Waning Gibbous
Mar 4
Last Quarter
Mar 11
New
Mar 19
First Quarter
Mar 27
Full

Hourly Weather History & Observations

Time (MST) Temp. Dew Point Humidity Pressure Visibility Wind Dir Wind Speed Gust Speed Precip Events Conditions
12:58 AM 52.2 °F 9.1 °F 18% 30.09 in 10.0 mi North 9.2 mph - N/A   Clear
1:58 AM 53.4 °F 4.8 °F 14% 30.12 in 10.0 mi NNE 16.1 mph - N/A   Clear
2:58 AM 52.3 °F 3.0 °F 13% 30.11 in 10.0 mi NNE 16.1 mph - N/A   Clear
3:58 AM 51.6 °F 2.3 °F 13% 30.12 in 10.0 mi North 18.4 mph - N/A   Clear
4:58 AM 51.3 °F 2.3 °F 14% 30.13 in 10.0 mi NNE 17.3 mph 26.5 mph N/A   Clear
5:58 AM 50.4 °F 3.0 °F 14% 30.15 in 10.0 mi NNE 21.9 mph - N/A   Clear
6:58 AM 49.3 °F 5.0 °F 16% 30.17 in 10.0 mi NNE 17.3 mph - N/A   Clear
7:58 AM 50.7 °F 7.5 °F 17% 30.21 in 10.0 mi NNE 13.8 mph - N/A   Clear
8:58 AM 54.3 °F 8.1 °F 16% 30.23 in 10.0 mi NNE 18.4 mph - N/A   Clear
9:58 AM 57.2 °F 7.7 °F 14% 30.24 in 10.0 mi NNE 11.5 mph - N/A   Clear
10:58 AM 59.4 °F 7.5 °F 13% 30.23 in 10.0 mi North 10.4 mph - N/A   Clear
11:58 AM 60.6 °F 9.3 °F 13% 30.22 in 10.0 mi NNE 8.1 mph - N/A   Clear
12:58 PM 63.0 °F 7.5 °F 11% 30.19 in 10.0 mi Variable 2.3 mph - N/A   Clear
1:58 PM 63.7 °F 6.3 °F 10% 30.17 in 10.0 mi WSW 5.8 mph - N/A   Clear
2:58 PM 64.4 °F 6.4 °F 10% 30.15 in 10.0 mi WNW 5.8 mph - N/A   Clear
3:58 PM 65.5 °F 7.7 °F 10% 30.13 in 10.0 mi NW 2.3 mph - N/A   Clear
4:58 PM 65.8 °F 8.1 °F 10% 30.12 in 10.0 mi West 4.6 mph - N/A   Clear
5:58 PM 64.9 °F 7.7 °F 11% 30.12 in 10.0 mi West 4.6 mph - N/A   Clear
6:58 PM 60.3 °F 17.4 °F 19% 30.15 in 10.0 mi WSW 6.9 mph - N/A   Clear
7:58 PM 55.8 °F 14.2 °F 19% 30.15 in 10.0 mi West 5.8 mph - N/A   Clear
8:58 PM 51.6 °F 21.6 °F 31% 30.17 in 10.0 mi Calm Calm - N/A   Clear
9:58 PM 53.1 °F 15.8 °F 23% 30.19 in 10.0 mi East 2.3 mph - N/A   Clear
10:58 PM 50.5 °F 18.1 °F 28% 30.21 in 10.0 mi Variable 4.6 mph - N/A   Clear
11:58 PM 49.6 °F 18.0 °F 29% 30.21 in 10.0 mi North 5.8 mph - N/A   Clear